DW6558 Weather Reports


Display with metric or nautical units.
time (UTC)temp
F
wind
direction
speed
MPH
gust
MPH
rain 1hr
in
rain 24hr
in
rain mn
in
humidity
%
barometer
mb
20260904085207 48 61 0.0 0.0 0.00 0.00 0.00 67 928.8
20260904084657 48 73 0.0 0.0 0.00 0.00 0.00 68 928.7
20260904084153 48 54 0.0 0.0 0.00 0.00 0.00 68 928.8
20260904083649 48 40 0.0 0.0 0.00 0.00 0.00 68 928.9
20260904083146 49 78 0.0 0.0 0.00 0.00 0.00 67 928.9
20260904082645 49 55 0.0 0.0 0.00 0.00 0.00 67 929.1
20260904082141 49 54 0.0 0.0 0.00 0.00 0.00 67 929.2
20260904081636 49 38 0.0 0.0 0.00 0.00 0.00 67 929.2
20260904081131 49 48 0.0 0.0 0.00 0.00 0.00 66 928.9
20260904080621 50 117 0.0 0.0 0.00 0.00 0.00 66 929.2
20260904080118 50 45 0.0 0.0 0.00 0.00 0.00 65 929.1
20260904075614 50 71 0.0 0.0 0.00 0.00 0.00 64 929.3
20260904075113 50 123 0.0 0.0 0.00 0.00 0.00 63 929.1
20260904074612 51 40 0.0 0.0 0.00 0.00 0.00 63 929.1
20260904074107 51 92 0.0 0.0 0.00 0.00 0.00 62 929.5
20260904073603 51 72 0.0 0.0 0.00 0.00 0.00 61 929.3
20260904073059 51 61 0.0 0.0 0.00 0.00 0.00 61 929.5
20260904072554 51 86 0.0 0.0 0.00 0.00 0.00 60 929.1
20260904072049 51 77 0.0 0.0 0.00 0.00 0.00 61 929.1
20260904071545 51 85 0.0 0.0 0.00 0.00 0.00 61 929.1
20260904071039 52 58 0.0 0.0 0.00 0.00 0.00 60 928.9
20260904070538 52 119 0.0 0.0 0.00 0.00 0.00 58 929.2
20260904070033 52 88 0.0 0.0 0.00 0.00 0.00 59 929.1
20260904065528 52 115 0.0 0.0 0.00 0.00 0.00 58 929.2
20260904065025 52 112 0.0 0.0 0.00 0.00 0.00 58 928.9
20260904064520 52 51 0.0 0.0 0.00 0.00 0.00 58 928.9
20260904064015 52 119 0.0 0.0 0.00 0.00 0.00 57 928.9
20260904063512 53 119 0.0 0.0 0.00 0.00 0.00 57 928.9
20260904063011 53 94 0.0 0.0 0.00 0.00 0.00 56 928.8
20260904062507 53 68 0.0 0.0 0.00 0.00 0.00 55 928.3
20260904062003 53 77 0.0 1.0 0.00 0.00 0.00 55 928.6
20260904061459 53 76 0.0 0.0 0.00 0.00 0.00 54 928.7
20260904060955 53 81 0.0 0.0 0.00 0.00 0.00 54 928.5
20260904060450 53 101 0.0 0.0 0.00 0.00 0.00 54 928.5
20260904055946 53 87 0.0 0.0 0.00 0.00 0.00 54 928.4
20260904055442 54 103 0.0 1.0 0.00 0.00 0.00 53 928.6
20260904054937 54 106 0.0 0.0 0.00 0.00 0.00 52 928.5
20260904054433 54 61 0.0 0.0 0.00 0.00 0.00 52 928.4
20260904053928 55 91 0.0 0.0 0.00 0.00 0.00 51 928.7
20260904053427 56 82 0.0 0.0 0.00 0.00 0.00 48 928.6
20260904052924 57 134 0.0 0.0 0.00 0.00 0.00 46 928.6
20260904052420 57 13 0.0 0.0 0.00 0.00 0.00 45 928.4
20260904051916 56 66 0.0 0.0 0.00 0.00 0.00 47 928.8
20260904051412 56 49 0.0 0.0 0.00 0.00 0.00 47 928.5
20260904050912 56 50 0.0 0.0 0.00 0.00 0.00 47 928.5
20260904050409 57 90 0.0 0.0 0.00 0.00 0.00 47 928.8
20260904045908 57 50 0.0 0.0 0.00 0.00 0.00 45 928.8
20260904045403 59 60 0.0 0.0 0.00 0.00 0.00 43 929.1
20260904044903 59 116 2.0 9.0 0.00 0.00 0.00 41 928.9
20260904044400 59 142 0.0 1.0 0.00 0.00 0.00 41 928.7
20260904043856 57 174 0.0 0.0 0.00 0.00 0.00 44 928.6
20260904043352 57 27 0.0 0.0 0.00 0.00 0.00 45 928.5
20260904042847 57 104 0.0 0.0 0.00 0.00 0.00 44 928.7
20260904042343 57 74 0.0 0.0 0.00 0.00 0.00 45 928.5
20260904041843 58 64 0.0 0.0 0.00 0.00 0.00 44 928.5
20260904041339 58 124 0.0 0.0 0.00 0.00 0.00 43 928.4
20260904040835 59 90 0.0 0.0 0.00 0.00 0.00 42 928.3
20260904040330 59 98 0.0 0.0 0.00 0.00 0.00 41 928.0
20260904035826 59 67 0.0 0.0 0.00 0.00 0.00 40 928.0
20260904035322 59 35 0.0 0.0 0.00 0.00 0.00 40 928.1
20260904034821 60 112 0.0 0.0 0.00 0.00 0.00 39 928.4
20260904034317 60 69 0.0 0.0 0.00 0.00 0.00 39 928.8
20260904033813 61 66 0.0 0.0 0.00 0.00 0.00 38 928.5
20260904033309 62 75 0.0 0.0 0.00 0.00 0.00 36 928.5
20260904032805 62 66 0.0 0.0 0.00 0.00 0.00 36 928.6
20260904032306 61 59 0.0 0.0 0.00 0.00 0.00 36 928.5
20260904031758 62 60 0.0 0.0 0.00 0.00 0.00 36 928.5
20260904031254 63 65 0.0 0.0 0.00 0.00 0.00 35 928.3
20260904030750 65 54 0.0 0.0 0.00 0.00 0.00 39 928.9
20260904030245 66 58 0.0 0.0 0.00 0.00 0.00 29 929.1
20260904025741 67 16 0.0 0.0 0.00 0.00 0.00 27 928.5
20260904025236 67 56 0.0 0.0 0.00 0.00 0.00 27 928.5
20260904024732 67 115 0.0 0.0 0.00 0.00 0.00 27 928.5
20260904024227 68 75 0.0 0.0 0.00 0.00 0.00 27 928.5
20260904023723 68 99 0.0 0.0 0.00 0.00 0.00 26 928.3
20260904023219 69 184 0.0 0.0 0.00 0.00 0.00 25 928.4
20260904022718 69 132 0.0 0.0 0.00 0.00 0.00 25 928.5
20260904022216 69 107 0.0 0.0 0.00 0.00 0.00 25 928.4
20260904021711 70 123 0.0 0.0 0.00 0.00 0.00 24 928.5
20260904021206 70 202 0.0 0.0 0.00 0.00 0.00 24 928.5
20260904020702 70 180 0.0 0.0 0.00 0.00 0.00 24 928.6
20260904020201 70 112 0.0 0.0 0.00 0.00 0.00 24 928.4
20260904015701 71 160 0.0 0.0 0.00 0.00 0.00 24 928.5
20260904015201 71 104 0.0 0.0 0.00 0.00 0.00 23 928.6
20260904014659 72 279 0.0 0.0 0.00 0.00 0.00 23 928.5
20260904014154 73 208 0.0 1.0 0.00 0.00 0.00 22 928.5
20260904013652 73 209 0.0 2.0 0.00 0.00 0.00 22 928.3
20260904013147 73 250 0.0 6.0 0.00 0.00 0.00 21 928.5
20260904012643 74 240 1.0 3.0 0.00 0.00 0.00 21 928.4
20260904012141 74 255 0.0 5.0 0.00 0.00 0.00 21 928.6
20260904011640 75 233 1.0 13.0 0.00 0.00 0.00 20 928.9
20260904011137 75 252 5.0 8.0 0.00 0.00 0.00 20 928.7
20260904010632 75 258 3.0 7.0 0.00 0.00 0.00 20 928.8
20260904010129 75 230 0.0 10.0 0.00 0.00 0.00 20 928.5
20260904005623 75 230 0.0 5.0 0.00 0.00 0.00 20 928.9
20260904005119 76 239 1.0 5.0 0.00 0.00 0.00 20 928.9
20260904004609 76 221 2.0 8.0 0.00 0.00 0.00 20 928.9
20260904004109 76 294 5.0 13.0 0.00 0.00 0.00 20 929.3
20260904003605 77 232 1.0 10.0 0.00 0.00 0.00 19 929.3
20260904003100 77 203 4.0 13.0 0.00 0.00 0.00 19 929.6
20260904002556 77 216 14.0 20.0 0.00 0.00 0.00 19 929.4
20260904002055 77 181 6.0 17.0 0.00 0.00 0.00 18 929.5
20260904001551 77 236 8.0 11.0 0.00 0.00 0.00 19 929.6
20260904001050 77 238 6.0 16.0 0.00 0.00 0.00 19 930.1
20260904000545 77 214 8.0 16.0 0.00 0.00 0.00 19 930.0
20260904000042 77 226 7.0 13.0 0.00 0.00 0.00 19 929.5
20260903235541 77 318 0.0 16.0 0.00 0.00 0.00 19 929.6
20260903235037 77 198 5.0 17.0 0.00 0.00 0.00 19 929.6
20260903234532 77 191 11.0 23.0 0.00 0.00 0.00 18 929.9
20260903234027 77 227 6.0 15.0 0.00 0.00 0.00 18 929.9
20260903233523 78 244 5.0 11.0 0.00 0.00 0.00 19 929.6
20260903233020 78 214 3.0 8.0 0.00 0.00 0.00 19 929.7
20260903232515 77 272 5.0 17.0 0.00 0.00 0.00 20 930.1
20260903232014 78 259 4.0 13.0 0.00 0.00 0.00 20 930.1
20260903231509 78 231 11.0 15.0 0.00 0.00 0.00 20 929.9
20260903231003 78 345 8.0 16.0 0.00 0.00 0.00 20 929.6
20260903230459 78 218 5.0 14.0 0.00 0.00 0.00 20 929.7
20260903225951 77 151 5.0 11.0 0.00 0.00 0.00 20 929.5
20260903225445 77 200 5.0 13.0 0.00 0.00 0.00 21 929.9
20260903224941 77 219 0.0 15.0 0.00 0.00 0.00 21 929.6
20260903224437 78 261 7.0 20.0 0.00 0.00 0.00 21 929.7
20260903223933 78 249 3.0 10.0 0.00 0.00 0.00 20 929.9
20260903223432 77 155 6.0 13.0 0.00 0.00 0.00 20 930.1
20260903222930 77 110 0.0 8.0 0.00 0.00 0.00 20 930.1
20260903222426 78 259 9.0 15.0 0.00 0.00 0.00 19 930.4
20260903221920 77 276 8.0 15.0 0.00 0.00 0.00 19 930.1
20260903221420 77 256 7.0 17.0 0.00 0.00 0.00 19 930.4
20260903220917 77 237 10.0 17.0 0.00 0.00 0.00 19 930.2
20260903220412 79 234 10.0 13.0 0.00 0.00 0.00 19 930.2
20260903215910 78 356 4.0 7.0 0.00 0.00 0.00 20 930.3
20260903215407 78 199 7.0 18.0 0.00 0.00 0.00 19 930.5
20260903214905 77 262 5.0 13.0 0.00 0.00 0.00 19 930.9
20260903214401 77 261 14.0 20.0 0.00 0.00 0.00 19 930.7
20260903213901 77 186 0.0 6.0 0.00 0.00 0.00 20 930.9
20260903213356 76 269 3.0 18.0 0.00 0.00 0.00 20 930.8
20260903212852 77 236 7.0 9.0 0.00 0.00 0.00 19 930.5
20260903212347 77 192 4.0 9.0 0.00 0.00 0.00 20 930.4
20260903211846 78 261 9.0 17.0 0.00 0.00 0.00 18 930.4
20260903211343 77 177 0.0 5.0 0.00 0.00 0.00 20 930.5
20260903210839 76 232 9.0 16.0 0.00 0.00 0.00 19 930.9
20260903210333 76 218 4.0 8.0 0.00 0.00 0.00 20 930.9
20260903205833 77 313 5.0 13.0 0.00 0.00 0.00 19 930.8
20260903205333 76 256 0.0 7.0 0.00 0.00 0.00 21 930.8
20260903204828 76 257 5.0 10.0 0.00 0.00 0.00 19 930.9
20260903204324 77 187 5.0 10.0 0.00 0.00 0.00 19 930.8
20260903203819 76 196 8.0 10.0 0.00 0.00 0.00 18 931.0
20260903203315 76 216 8.0 16.0 0.00 0.00 0.00 19 930.9
20260903202814 75 245 7.0 10.0 0.00 0.00 0.00 19 931.3
20260903202311 76 221 7.0 17.0 0.00 0.00 0.00 19 931.1
20260903201810 76 194 9.0 13.0 0.00 0.00 0.00 18 931.3
20260903201305 75 220 8.0 16.0 0.00 0.00 0.00 19 931.6
20260903200804 75 184 4.0 8.0 0.00 0.00 0.00 18 931.6
20260903200259 75 283 0.0 10.0 0.00 0.00 0.00 20 931.5
20260903195754 75 232 10.0 13.0 0.00 0.00 0.00 19 931.3
20260903195250 75 186 6.0 15.0 0.00 0.00 0.00 19 931.2
20260903194745 74 239 6.0 11.0 0.00 0.00 0.00 20 931.5
20260903194241 75 241 10.0 13.0 0.00 0.00 0.00 19 931.7
20260903193736 75 206 8.0 15.0 0.00 0.00 0.00 18 931.7
20260903193232 74 205 7.0 13.0 0.00 0.00 0.00 19 931.6
20260903192728 75 252 10.0 13.0 0.00 0.00 0.00 19 931.6
20260903192223 74 192 4.0 6.0 0.00 0.00 0.00 20 931.6
20260903191719 75 203 4.0 11.0 0.00 0.00 0.00 19 931.5
20260903191215 73 184 4.0 13.0 0.00 0.00 0.00 19 931.8
20260903190709 73 227 3.0 14.0 0.00 0.00 0.00 19 931.5
20260903190209 73 198 6.0 17.0 0.00 0.00 0.00 20 931.5
20260903185704 73 250 7.0 13.0 0.00 0.00 0.00 19 931.8
20260903185158 73 206 6.0 11.0 0.00 0.00 0.00 20 931.9
20260903184655 73 205 5.0 11.0 0.00 0.00 0.00 20 931.9
20260903184151 73 262 9.0 14.0 0.00 0.00 0.00 20 931.9
20260903183650 73 210 10.0 11.0 0.00 0.00 0.00 19 932.1
20260903183145 73 248 1.0 14.0 0.00 0.00 0.00 21 931.9
20260903182643 72 233 11.0 17.0 0.00 0.00 0.00 19 931.8
20260903182140 72 228 13.0 15.0 0.00 0.00 0.00 18 931.8
20260903181637 73 237 9.0 11.0 0.00 0.00 0.00 19 931.8
20260903181132 72 217 1.0 8.0 0.00 0.00 0.00 20 932.1
20260903180628 73 158 11.0 16.0 0.00 0.00 0.00 19 932.1
20260903180122 72 196 6.0 11.0 0.00 0.00 0.00 19 932.1
20260903175621 72 203 6.0 14.0 0.00 0.00 0.00 19 932.4
20260903175121 71 254 7.0 14.0 0.00 0.00 0.00 20 932.5
20260903174615 71 258 9.0 13.0 0.00 0.00 0.00 19 932.4
20260903174110 72 251 4.0 8.0 0.00 0.00 0.00 21 932.3
20260903173605 71 164 7.0 16.0 0.00 0.00 0.00 20 932.4
20260903173102 71 275 10.0 17.0 0.00 0.00 0.00 19 932.4
20260903172556 71 242 8.0 13.0 0.00 0.00 0.00 19 932.3
20260903172052 70 224 6.0 20.0 0.00 0.00 0.00 20 932.4
20260903171552 71 253 6.0 13.0 0.00 0.00 0.00 19 932.3
20260903171048 71 220 5.0 9.0 0.00 0.00 0.00 19 932.4
20260903170546 70 243 7.0 9.0 0.00 0.00 0.00 20 932.3
20260903170042 70 347 4.0 14.0 0.00 0.00 0.00 20 932.3
20260903165539 70 221 0.0 10.0 0.00 0.00 0.00 21 932.3
20260903165035 70 201 8.0 10.0 0.00 0.00 0.00 20 932.1
20260903164534 70 202 4.0 5.0 0.00 0.00 0.00 21 932.3
20260903164030 69 308 3.0 9.0 0.00 0.00 0.00 22 932.1
20260903163525 68 218 8.0 11.0 0.00 0.00 0.00 21 932.3
20260903163021 68 249 10.0 13.0 0.00 0.00 0.00 20 932.3
20260903162517 68 265 6.0 13.0 0.00 0.00 0.00 21 932.7
20260903162013 68 240 0.0 13.0 0.00 0.00 0.00 21 932.1
20260903161508 68 264 7.0 15.0 0.00 0.00 0.00 22 932.1
20260903161005 67 241 7.0 9.0 0.00 0.00 0.00 21 932.3
20260903160503 66 141 8.0 11.0 0.00 0.00 0.00 23 932.0
20260903160002 64 187 0.0 0.0 0.00 0.00 0.00 32 932.1
20260903155456 63 87 0.0 0.0 0.00 0.00 0.00 34 932.1
20260903154953 63 38 0.0 0.0 0.00 0.00 0.00 34 932.3
20260903154448 62 1 1.0 5.0 0.00 0.00 0.00 32 932.1
20260903153944 61 30 0.0 0.0 0.00 0.00 0.00 32 932.5
20260903153440 61 4 0.0 0.0 0.00 0.00 0.00 33 932.5
20260903152935 60 14 0.0 0.0 0.00 0.00 0.00 36 932.3
20260903152431 60 18 0.0 0.0 0.00 0.00 0.00 35 932.6
20260903151927 59 19 0.0 0.0 0.00 0.00 0.00 36 932.6
20260903151416 59 16 0.0 0.0 0.00 0.00 0.00 36 932.6
20260903150916 59 12 0.0 0.0 0.00 0.00 0.00 34 932.6
20260903150410 58 29 0.0 0.0 0.00 0.00 0.00 35 932.9
20260903145905 58 38 0.0 0.0 0.00 0.00 0.00 38 932.9
20260903145400 58 53 0.0 0.0 0.00 0.00 0.00 41 932.6
20260903144859 56 64 0.0 0.0 0.00 0.00 0.00 47 932.7
20260903144355 55 83 0.0 0.0 0.00 0.00 0.00 48 932.6
20260903143850 54 63 0.0 2.0 0.00 0.00 0.00 50 932.4
20260903143347 52 64 0.0 2.0 0.00 0.00 0.00 52 932.1
20260903142842 51 48 0.0 2.0 0.00 0.00 0.00 55 932.0
20260903142338 51 67 0.0 1.0 0.00 0.00 0.00 51 932.0
20260903141834 50 83 0.0 0.0 0.00 0.00 0.00 56 931.8
20260903141330 49 54 0.0 0.0 0.00 0.00 0.00 57 931.8
20260903140830 48 70 0.0 0.0 0.00 0.00 0.00 55 931.7
20260903140325 47 81 0.0 1.0 0.00 0.00 0.00 57 931.7
20260903135821 46 85 0.0 3.0 0.00 0.00 0.00 56 931.5
20260903135316 46 83 0.0 0.0 0.00 0.00 0.00 58 931.7
20260903134814 46 77 0.0 1.0 0.00 0.00 0.00 58 931.5
20260903134310 45 47 0.0 0.0 0.00 0.00 0.00 57 931.5
20260903133808 44 59 0.0 0.0 0.00 0.00 0.00 59 931.6
20260903133304 44 82 0.0 2.0 0.00 0.00 0.00 59 931.5
20260903132804 44 70 0.0 1.0 0.00 0.00 0.00 59 931.3
20260903132259 44 81 0.0 0.0 0.00 0.00 0.00 59 931.2
20260903131754 43 61 0.0 0.0 0.00 0.00 0.00 61 931.1
20260903131253 43 77 3.0 3.0 0.00 0.00 0.00 62 931.1
20260903130748 42 73 0.0 0.0 0.00 0.00 0.00 64 931.1
20260903130243 42 73 0.0 0.0 0.00 0.00 0.00 64 931.0
20260903125741 42 82 0.0 1.0 0.00 0.00 0.00 64 930.9
20260903125237 42 66 2.0 2.0 0.00 0.00 0.00 65 931.0
20260903124736 42 72 1.0 2.0 0.00 0.00 0.00 65 930.9
20260903124232 42 68 2.0 2.0 0.00 0.00 0.00 66 930.9
20260903123730 42 53 0.0 0.0 0.00 0.00 0.00 67 930.8
20260903123229 42 77 1.0 2.0 0.00 0.00 0.00 67 930.8
20260903122728 42 64 0.0 3.0 0.00 0.00 0.00 66 931.0
20260903122224 42 112 3.0 3.0 0.00 0.00 0.00 66 930.9
20260903121722 43 158 0.0 0.0 0.00 0.00 0.00 66 930.9
20260903121218 43 56 0.0 0.0 0.00 0.00 0.00 64 931.0
20260903120718 44 55 0.0 0.0 0.00 0.00 0.00 62 930.9
20260903120212 44 73 0.0 0.0 0.00 0.00 0.00 61 930.8
20260903115710 45 59 0.0 0.0 0.00 0.00 0.00 60 930.8
20260903115206 44 102 0.0 0.0 0.00 0.00 0.00 60 930.8
20260903114701 44 105 0.0 0.0 0.00 0.00 0.00 61 930.7
20260903114155 45 60 0.0 0.0 0.00 0.00 0.00 58 930.4
20260903113651 45 60 0.0 0.0 0.00 0.00 0.00 59 930.5
20260903113147 46 60 0.0 0.0 0.00 0.00 0.00 59 930.5
20260903112644 46 62 0.0 0.0 0.00 0.00 0.00 59 930.7
20260903112144 45 67 0.0 0.0 0.00 0.00 0.00 60 930.3
20260903111642 45 61 0.0 0.0 0.00 0.00 0.00 66 930.4
20260903111138 45 68 0.0 0.0 0.00 0.00 0.00 66 930.5
20260903110634 45 71 0.0 0.0 0.00 0.00 0.00 67 930.3
20260903110130 46 76 0.0 0.0 0.00 0.00 0.00 66 930.5
20260903105624 47 75 0.0 0.0 0.00 0.00 0.00 65 930.3
20260903105120 46 74 0.0 0.0 0.00 0.00 0.00 67 930.3
20260903104619 47 78 0.0 0.0 0.00 0.00 0.00 68 930.5
20260903104115 47 72 0.0 0.0 0.00 0.00 0.00 67 930.2
20260903103610 47 75 0.0 0.0 0.00 0.00 0.00 69 930.4
20260903103107 48 55 0.0 0.0 0.00 0.00 0.00 68 930.4
20260903102602 48 60 0.0 0.0 0.00 0.00 0.00 67 930.4
20260903102101 48 69 0.0 0.0 0.00 0.00 0.00 67 930.4
20260903101555 48 60 0.0 0.0 0.00 0.00 0.00 67 930.5
20260903101051 48 67 0.0 0.0 0.00 0.00 0.00 65 930.4
20260903100551 49 53 0.0 0.0 0.00 0.00 0.00 66 930.3
20260903100050 49 50 0.0 0.0 0.00 0.00 0.00 66 930.3
20260903095548 49 50 0.0 0.0 0.00 0.00 0.00 65 930.8
20260903095043 48 51 0.0 0.0 0.00 0.00 0.00 65 930.5
20260903094542 49 52 0.0 0.0 0.00 0.00 0.00 63 930.7
20260903094038 50 52 0.0 0.0 0.00 0.00 0.00 62 930.7
20260903093533 50 53 0.0 0.0 0.00 0.00 0.00 60 930.3
20260903093029 49 70 0.0 0.0 0.00 0.00 0.00 65 930.4
20260903092528 49 56 0.0 0.0 0.00 0.00 0.00 68 930.5
20260903092028 49 63 0.0 0.0 0.00 0.00 0.00 65 930.2
20260903091527 49 70 0.0 0.0 0.00 0.00 0.00 63 930.3
20260903091026 50 73 0.0 0.0 0.00 0.00 0.00 63 930.4
20260903090523 51 63 0.0 0.0 0.00 0.00 0.00 63 930.4
20260903090021 51 54 0.0 0.0 0.00 0.00 0.00 64 930.4